San Nicolas Island, CA

10:35 AM PDT on March 29, 2017 (GMT -0700)
San Nicolas Island Naval Outlying Field

Weather History for KNSI - January, 2013

Change the Weather History Date:

Monday, January 7, 2013

  Actual Average Record
Temperature  
Mean Temperature 61 °F -  
Max Temperature 66 °F 58 °F 81 °F (2009)
Min Temperature 56 °F 49 °F 38 °F (1997)
Degree Days  
Heating Degree Days 4    
Growing Degree Days 11 (Base 50)    
Moisture  
Dew Point 45 °F    
Average Humidity 56    
Maximum Humidity 62    
Minimum Humidity 48    
Precipitation  
Precipitation 0.00 in - - ()
Sea Level Pressure  
Sea Level Pressure 30.05 in    
Wind  
Wind Speed 19 mph (WNW)    
Max Wind Speed 25 mph    
Max Gust Speed 34 mph    
Visibility 9 miles    
Events      
Averages and records for this station are not official NWS values.
T = Trace of Precipitation, MM = Missing Value Source: NWS Daily Summary

Daily Weather History Graph

Daily Weather History Graph

Search for Another Location

Airport or City:

Trip Planner

Search our weather history database for the weather conditions in past years. The results will help you decide how hot, cold, wet, or windy it might be!

Date:

Astronomy

Jan. 07, 2013 Rise Set
Actual Time 7:02 AM PST 5:06 PM PST
Civil Twilight 6:34 AM PST 5:33 PM PST
Nautical Twilight 6:04 AM PST 6:04 PM PST
Astronomical Twilight 5:34 AM PST 6:34 PM PST
Moon 2:34 AM PST (1/7) 1:19 PM PST (1/7)
Length of Visible Light 10h 58m
Length of Day
10h 04m
Waning Crescent, 21% of the Moon is Illuminated
Jan 7
Waning Crescent
Jan 11
New
Jan 18
First Quarter
Jan 26
Full
Feb 3
Last Quarter

Hourly Weather History & Observations

Time (PST) Temp. Dew Point Humidity Pressure Visibility Wind Dir Wind Speed Gust Speed Precip Events Conditions
12:53 AM 57.9 °F 44.1 °F 60% 30.02 in 10.0 mi NW 21.9 mph 27.6 mph N/A   Clear
1:53 AM 59.0 °F 44.1 °F 58% 30.01 in 10.0 mi NW 18.4 mph - N/A   Clear
2:53 AM 59.0 °F 43.0 °F 55% 30.03 in 10.0 mi NW 19.6 mph - N/A   Clear
3:53 AM 59.0 °F 44.1 °F 58% 30.04 in 10.0 mi NW 16.1 mph - N/A   Clear
4:53 AM 61.0 °F 43.0 °F 52% 30.05 in 10.0 mi NW 15.0 mph - N/A   Clear
5:53 AM 56.3 °F 43.0 °F 61% 30.06 in 7.0 mi NW 19.6 mph - N/A   Clear
6:53 AM 56.1 °F 43.0 °F 61% 30.08 in 7.0 mi NW 19.6 mph - N/A   Clear
7:53 AM 59.7 °F 44.1 °F 56% 30.10 in 7.0 mi WNW 13.8 mph - N/A   Clear
8:53 AM 59.7 °F 45.0 °F 58% 30.12 in 7.0 mi NW 19.6 mph 26.5 mph N/A   Clear
9:53 AM 61.5 °F 45.0 °F 55% 30.13 in 7.0 mi WNW 19.6 mph - N/A   Clear
10:53 AM 63.5 °F 46.0 °F 53% 30.12 in 7.0 mi NW 20.7 mph - N/A   Partly Cloudy
11:53 AM 63.7 °F 45.0 °F 51% 30.09 in 7.0 mi WNW 19.6 mph - N/A   Partly Cloudy
12:53 PM 62.1 °F 46.0 °F 56% 30.04 in 7.0 mi WNW 20.7 mph - N/A   Partly Cloudy
1:53 PM 66.0 °F 46.0 °F 48% 30.02 in 7.0 mi West 24.2 mph - N/A   Scattered Clouds
2:53 PM 64.0 °F 46.0 °F 52% 30.02 in 7.0 mi WNW 25.3 mph 34.5 mph N/A   Scattered Clouds
3:53 PM 64.0 °F 46.9 °F 54% 30.02 in 7.0 mi WNW 24.2 mph 28.8 mph N/A   Scattered Clouds
4:53 PM 62.1 °F 46.0 °F 56% 30.01 in 10.0 mi WNW 17.3 mph - N/A   Clear
5:53 PM 60.1 °F 46.9 °F 62% 30.03 in 10.0 mi WNW 20.7 mph 27.6 mph N/A   Clear
6:53 PM 60.1 °F 46.9 °F 62% 30.02 in 10.0 mi WNW 20.7 mph - N/A   Clear
7:53 PM 61.0 °F 48.0 °F 62% 30.02 in 10.0 mi WNW 17.3 mph - N/A   Clear
8:53 PM 62.1 °F 48.0 °F 60% 30.02 in 9.0 mi WNW 17.3 mph - N/A   Clear
9:53 PM 64.9 °F 46.9 °F 52% 30.03 in 10.0 mi WNW 11.5 mph - N/A   Clear
10:53 PM 63.0 °F 45.0 °F 52% 30.04 in 10.0 mi WNW 11.5 mph - N/A   Clear
11:53 PM 63.0 °F 44.1 °F 50% 30.04 in 10.0 mi West 10.4 mph - N/A   Clear